Back to catalog

OT-FOREST-19 PATADASTRA

AliveScienceSSO
NORAD 69001·PAYLOAD·🇬🇷 Greece

Launched May 3, 2026 from Vandenberg Space Force Base

Loading…

Next Passes (next 24 hours)

TLE

FreshSource: Space-Track

Epoch: Sep 13, 2026, 16:05 UTC

1 69001U 26100X   26256.67063652  .00001150  00000-0  11626-3 0  9997
2 69001  97.7243 152.6119 0002828  79.2854 280.8684 14.92914943 19899

Track OT-FOREST-19 PATADASTRA in real time with AllMySat

Download on the App Store